Theta_e
319 318 318 319 318 318 319 320 321 321 320 320 320 321 322 322 321 323 322 322 321 321 322 323 323 323 324 324 324 322 313 293 295 294 294 297 315 321 322 322 322 323 319 295 296 296 293 293 294 295 295 293 291 291 291 293 289 290 284 282 281 279 280 282 283 285 286 284 286 284 285 286 284 286 286 288 286 286 286 286 288 290 289 291 291 293 294 295
318 317 317 318 317 318 318 319 320 320 320 320 320 321 321 321 322 321 322 323 322 322 323 325 323 320 321 321 324 320 300 294 294 294 293 309 318 320 322 321 322 320 311 296 292 290 293 292 292 296 291 289 291 291 292 290 290 284 279 282 281 278 282 283 284 285 285 284 284 284 284 286 286 286 287 284 282 284 284 285 287 285 288 290 291 292 292 293
317 317 317 317 317 318 318 319 319 319 320 320 319 321 320 320 321 321 322 322 323 323 323 326 319 321 321 321 323 318 301 293 293 291 295 315 318 320 321 320 320 318 295 295 291 292 292 292 291 295 290 289 290 289 290 288 289 284 285 281 279 282 283 283 283 284 286 285 283 283 284 283 283 284 286 283 281 283 282 284 285 284 284 287 289 291 291 292
317 317 317 317 317 317 318 318 319 319 319 320 320 320 320 320 320 321 322 322 323 323 323 325 317 318 322 321 319 299 295 291 289 290 297 316 318 319 319 319 318 313 294 293 292 291 291 291 291 292 289 289 286 288 288 287 286 284 284 278 282 283 282 285 284 285 285 284 283 282 283 283 283 282 283 283 284 282 282 284 285 285 285 287 289 290 290 290
317 317 317 317 317 317 317 318 319 319 320 320 320 320 320 319 320 321 321 322 323 322 323 324 320 314 318 317 312 297 294 285 287 294 300 315 318 319 316 317 315 305 295 294 294 293 291 290 288 288 287 283 285 289 285 287 285 283 280 282 283 282 283 284 283 283 283 283 283 282 284 284 283 282 280 281 284 282 282 285 287 287 288 288 287 287 288 288
317 316 316 316 316 317 316 317 318 319 319 320 320 320 321 321 320 321 321 322 323 323 324 322 322 315 316 311 297 295 292 278 289 294 313 315 316 316 315 314 312 302 297 296 293 294 294 293 293 284 284 284 284 284 284 285 287 283 282 281 282 283 283 283 283 281 282 280 280 281 283 281 280 281 280 281 280 282 286 287 287 288 289 288 288 287 286 287
316 315 316 315 316 316 316 317 317 318 320 319 321 321 321 321 321 319 321 322 324 323 325 321 320 316 318 309 296 296 290 287 290 297 310 314 314 312 313 309 307 298 297 294 292 292 290 292 291 284 283 286 286 285 286 287 288 287 281 281 282 282 280 280 281 280 280 282 281 281 282 280 280 280 281 281 282 283 283 285 285 287 288 287 285 286 285 285
316 315 315 316 316 315 316 317 317 317 319 319 320 322 321 321 320 320 321 322 323 324 324 319 319 318 315 295 293 289 290 287 294 296 308 310 302 301 306 300 298 297 295 292 289 290 288 288 289 287 286 285 284 286 286 288 286 284 282 283 282 281 280 281 280 281 281 280 281 282 280 279 281 281 280 280 282 283 283 284 284 283 282 282 282 283 284 284
315 316 315 316 315 316 316 316 316 317 318 319 319 320 321 321 319 319 321 321 323 324 322 318 315 317 314 294 290 290 287 292 294 294 297 296 295 296 299 297 297 294 292 293 293 292 292 287 288 285 285 285 285 284 284 285 284 282 282 281 281 281 282 281 282 280 280 282 281 282 280 280 280 281 280 281 283 282 283 283 282 281 282 281 282 283 283 283
315 316 315 315 315 316 316 316 316 317 318 319 319 320 321 320 319 319 321 322 323 323 324 320 313 311 301 293 291 288 291 293 293 295 296 296 295 298 298 297 296 295 293 291 293 292 293 290 292 291 290 287 286 283 285 287 283 282 282 282 282 282 282 281 281 281 280 281 279 279 280 280 280 281 279 281 280 282 282 280 279 280 281 281 282 282 281 282
315 315 315 315 315 316 316 315 316 317 318 319 320 321 320 319 320 322 320 321 321 322 321 319 320 307 297 296 290 286 294 295 294 296 296 296 295 296 295 295 296 293 294 293 290 290 290 290 290 289 290 285 287 284 285 283 285 283 283 283 282 281 284 282 279 280 281 283 278 280 279 279 278 282 279 279 281 281 280 279 279 278 279 280 281 281 282 282
315 315 315 315 315 315 315 315 316 317 318 319 320 320 320 319 320 320 320 320 321 321 317 314 313 297 293 295 290 288 294 294 293 295 297 296 294 293 295 294 295 293 294 292 292 291 291 289 289 286 286 288 285 285 285 283 283 282 281 281 281 280 284 283 280 282 281 282 282 279 280 277 277 279 280 280 280 280 278 278 279 278 278 278 279 280 281 280
314 314 314 314 315 315 316 315 316 317 317 318 320 321 317 318 318 321 320 317 320 317 315 314 305 298 296 291 289 296 294 293 295 296 298 298 295 293 294 295 295 294 294 293 291 292 292 293 294 289 285 283 282 281 285 284 282 283 281 279 278 277 279 283 282 282 282 283 281 280 275 276 277 278 279 280 280 278 278 279 279 277 276 276 277 278 279 281
314 314 314 314 314 315 315 316 315 316 317 317 319 318 316 318 318 320 319 317 318 321 319 312 298 296 293 285 293 295 296 298 295 298 295 297 295 295 294 296 296 295 295 293 292 292 292 292 292 288 286 286 285 288 284 281 281 278 279 278 275 273 276 281 281 282 282 282 280 283 276 274 277 279 280 279 279 279 278 279 278 276 277 276 278 278 280 280
314 313 314 314 314 315 316 316 315 315 316 316 317 317 315 316 317 317 319 314 316 318 318 310 297 292 288 289 294 296 311 300 297 294 295 295 293 292 294 294 294 294 294 294 293 294 293 294 292 285 283 285 283 282 278 277 277 277 277 276 275 275 278 278 281 281 278 280 280 281 274 277 277 279 278 279 278 277 278 278 277 276 276 276 276 278 279 280
313 314 314 314 314 315 316 316 314 314 315 315 316 317 315 315 316 316 316 317 314 315 302 297 294 294 291 289 294 305 292 295 294 295 294 294 292 291 293 292 292 293 292 294 294 294 292 292 287 283 283 283 280 276 277 276 276 278 277 276 275 274 276 276 280 280 280 278 280 280 277 276 278 279 279 278 279 278 277 277 276 276 276 277 278 278 279 280
313 314 313 314 314 315 315 316 313 313 314 315 317 317 319 314 314 316 313 309 300 302 302 295 291 294 289 293 297 292 289 292 293 294 295 295 293 292 292 291 290 290 291 292 294 293 290 288 285 284 283 280 279 278 275 275 274 276 276 275 276 275 275 274 277 280 280 279 276 278 275 275 277 278 277 278 278 278 278 277 276 277 277 278 278 278 278 279
314 313 312 313 313 314 316 315 314 313 313 315 317 313 305 318 312 309 305 302 296 296 295 297 291 290 287 294 288 290 292 289 294 292 292 294 292 293 292 290 289 288 289 290 291 288 286 285 284 279 281 281 279 277 277 274 276 276 275 274 274 274 274 275 275 278 280 278 277 276 276 276 276 277 277 277 277 278 277 276 277 277 277 278 278 278 279 279
313 312 313 313 313 314 316 316 313 311 311 315 316 315 314 311 296 298 297 297 295 291 288 291 289 285 281 289 290 290 291 293 291 292 293 294 294 292 291 291 289 288 285 285 286 285 283 283 283 281 277 278 277 275 275 277 276 277 276 275 275 274 274 275 276 276 278 277 276 275 274 275 276 277 277 278 277 276 276 277 277 277 277 278 278 279 279 279
312 312 312 312 313 314 315 316 311 310 310 303 292 297 294 292 289 288 292 294 288 288 288 288 287 289 290 289 291 294 295 294 290 293 294 294 293 291 290 288 288 288 283 281 282 284 282 279 276 275 276 277 277 276 276 276 278 276 275 274 274 275 274 275 276 279 279 276 276 274 275 275 276 276 277 277 277 278 277 278 278 278 279 279 279 279 279 279
312 312 312 312 313 314 315 314 309 311 307 292 293 292 290 286 285 285 285 286 285 285 288 289 288 289 290 289 289 291 288 290 291 291 293 297 290 290 288 286 285 284 281 279 281 284 282 279 276 277 277 277 277 276 276 276 277 276 274 274 274 275 274 277 277 277 280 276 275 275 275 276 276 277 277 278 279 277 277 278 279 279 279 280 279 280 280 281
312 312 312 312 312 313 314 313 308 308 305 296 295 291 288 290 291 288 286 284 288 287 287 287 287 289 290 288 290 289 288 286 291 291 294 296 292 286 285 284 282 280 280 279 278 280 279 275 277 277 277 277 277 277 276 276 276 275 275 274 273 275 276 276 276 277 279 276 276 275 275 275 276 276 277 277 277 279 278 279 279 279 279 280 281 280 281 280
312 311 312 312 312 313 313 312 307 304 292 292 289 287 288 292 291 286 287 287 285 287 287 286 287 285 288 290 289 290 288 285 283 289 290 292 288 286 283 282 281 281 282 281 278 278 277 277 279 278 277 277 278 278 276 276 277 276 276 274 275 275 275 274 275 277 279 277 277 276 275 275 275 275 276 277 277 278 278 280 279 280 280 280 281 281 280 281
312 312 312 312 312 312 314 311 303 295 291 290 289 289 291 291 291 290 285 282 284 286 289 288 286 285 287 288 290 289 286 284 283 285 293 288 285 285 282 281 280 280 278 279 280 278 276 278 278 277 277 277 277 277 277 275 276 276 276 274 274 275 276 276 275 276 277 278 276 275 274 273 274 274 276 278 277 278 278 278 279 280 280 280 280 281 281 281
311 312 312 312 311 312 311 308 294 289 287 285 287 290 289 291 291 291 287 282 282 286 287 288 284 288 289 292 289 291 287 286 285 287 289 289 287 283 283 282 279 278 277 279 280 279 277 279 279 277 277 277 277 278 276 276 274 274 276 276 277 275 276 275 275 275 273 275 277 276 269 270 274 274 274 275 275 277 277 277 278 279 279 279 280 279 281 281
311 311 311 312 309 310 311 293 288 286 287 286 289 290 290 289 290 289 283 272 275 283 287 285 292 289 291 289 288 281 286 283 287 288 293 289 290 286 282 280 280 278 277 278 278 278 279 279 278 277 277 277 276 275 277 277 274 272 276 275 276 276 276 275 274 275 272 271 276 276 272 264 273 274 275 274 273 275 276 276 277 277 278 278 279 279 279 280
311 311 311 311 308 309 292 288 287 289 287 287 291 289 289 292 291 292 289 274 271 283 283 289 290 288 293 287 286 287 279 282 290 286 289 290 288 290 281 278 279 280 279 278 278 278 279 279 278 277 277 276 276 275 277 276 274 275 275 276 276 276 275 274 275 274 275 275 278 274 273 269 268 273 274 273 274 274 274 276 277 277 277 278 278 279 279 279
311 311 311 310 307 301 289 288 287 285 286 288 291 288 289 290 292 288 278 268 272 285 283 284 289 290 289 287 289 285 285 285 282 286 288 288 288 288 284 280 278 279 279 279 274 278 278 278 278 277 276 276 275 277 278 277 275 277 277 277 276 275 275 275 275 275 274 273 270 273 274 269 265 271 274 273 275 273 273 275 276 277 277 277 278 279 279 279
311 311 311 309 306 304 291 287 286 287 288 290 288 289 289 288 287 283 274 271 282 280 293 286 294 289 284 287 285 281 282 284 281 284 287 287 290 285 282 281 280 281 280 279 277 279 279 279 280 278 277 275 276 277 277 277 275 276 278 278 277 276 276 275 274 274 272 267 266 271 273 267 268 271 273 273 273 273 274 275 275 276 277 277 278 279 279 279
311 311 310 308 299 291 288 288 290 290 289 288 288 290 290 287 286 281 276 271 282 277 285 285 285 283 281 281 282 282 283 282 281 283 284 281 286 286 282 284 280 280 280 281 280 279 279 282 283 278 278 279 278 277 277 277 279 278 278 278 275 274 275 273 271 270 266 262 266 272 273 271 266 271 273 273 274 273 274 274 274 274 276 277 277 278 279 279
310 310 307 303 289 289 287 283 287 288 288 290 290 291 289 281 272 266 268 275 282 281 284 279 280 281 279 280 279 282 280 279 281 281 281 283 283 281 282 281 281 276 277 277 278 277 279 278 279 279 281 280 278 278 278 278 277 277 275 275 274 273 272 271 265 263 264 259 264 270 272 270 264 267 273 273 273 274 275 275 275 274 276 277 277 278 279 278
310 309 307 297 296 288 288 287 288 289 289 289 289 284 283 284 281 273 275 284 276 279 278 278 280 278 278 278 277 278 278 278 280 279 278 277 277 278 277 275 275 268 269 270 272 277 278 278 278 279 283 279 277 276 276 277 278 277 275 274 270 264 263 266 260 264 257 264 271 270 271 268 269 272 273 274 274 274 274 276 276 276 276 277 278 279 279 279
309 308 306 301 296 287 290 287 290 289 290 290 286 282 278 271 274 271 271 272 276 277 278 281 279 278 277 277 276 277 279 278 280 279 279 276 276 275 278 277 277 275 271 274 272 271 273 276 277 279 279 279 279 275 275 275 277 276 274 268 261 258 254 258 251 255 258 267 270 270 270 271 273 274 273 275 275 275 274 275 276 276 277 278 278 278 278 279
307 301 291 297 291 292 291 291 289 291 290 289 291 285 281 276 273 284 272 271 276 276 280 278 279 279 276 278 277 276 277 279 278 279 277 273 273 274 276 277 278 276 270 270 271 269 265 270 276 277 276 278 277 276 277 275 274 274 274 272 268 258 264 261 256 264 263 265 268 268 266 262 269 273 275 275 274 274 274 275 275 276 276 277 277 277 277 278
304 294 291 290 290 290 291 288 289 291 286 286 280 277 276 273 271 273 274 270 275 277 281 278 278 277 276 274 276 277 278 276 278 276 277 274 271 272 274 276 277 277 275 271 270 269 273 271 276 278 278 277 277 277 277 275 273 273 273 273 269 268 265 266 257 259 257 259 264 260 266 269 273 276 277 276 274 275 275 274 275 276 276 275 277 278 279 279
302 291 291 287 291 290 288 291 289 290 286 281 277 274 272 272 276 273 276 280 281 280 277 279 276 276 274 272 274 276 281 278 277 273 271 273 275 275 276 276 276 277 274 271 272 268 268 273 276 276 278 277 278 278 278 278 270 275 272 266 270 274 265 258 261 258 260 256 259 259 269 273 274 275 275 274 276 276 275 275 275 275 275 275 277 278 278 279
288 289 293 289 289 288 289 290 291 286 285 278 274 275 271 272 274 274 282 280 280 279 277 276 274 276 272 272 273 274 278 279 277 273 269 275 272 276 275 276 278 276 277 275 271 271 271 271 275 276 277 278 276 277 278 276 277 273 268 273 275 271 266 265 263 254 252 257 261 263 265 267 269 267 274 276 275 276 275 276 275 275 275 276 278 278 278 279
290 290 292 289 290 287 289 289 289 285 282 281 275 283 271 273 277 279 280 279 280 277 273 273 276 278 273 274 275 275 278 277 277 269 271 272 271 280 277 276 278 277 277 277 273 272 273 268 273 276 275 277 277 278 277 278 277 276 276 277 274 262 266 263 258 259 260 257 256 263 264 265 269 271 273 273 273 275 276 275 274 276 277 277 278 278 279 279
282 285 287 289 289 289 289 287 287 283 278 277 270 281 275 274 278 278 280 280 276 277 277 274 273 276 275 274 276 274 275 277 274 270 270 272 271 279 278 277 277 277 277 277 273 274 271 268 268 275 277 275 275 273 268 271 276 272 276 274 273 268 264 263 263 262 260 258 259 260 261 266 269 271 272 273 273 274 275 274 274 275 276 277 278 278 279 279
286 285 281 290 288 289 289 290 286 282 280 276 272 271 274 276 280 279 277 280 278 277 276 277 273 272 275 275 276 277 275 274 274 275 273 274 275 279 277 278 276 277 277 277 274 275 271 271 266 273 272 274 272 270 271 271 270 272 272 268 267 267 270 270 263 263 264 254 254 254 261 263 270 274 274 274 274 274 274 275 275 276 277 278 278 278 279 279
280 279 280 287 289 287 289 288 280 274 272 270 270 271 273 276 279 279 278 276 277 278 278 276 276 276 273 273 276 274 275 274 273 274 274 275 276 272 277 277 277 277 277 277 274 273 266 267 269 266 271 266 271 275 273 273 273 271 271 271 271 267 264 263 262 265 257 261 257 252 264 266 274 276 276 275 275 274 274 275 275 276 278 278 279 279 279 279
282 276 283 287 287 288 286 282 273 269 272 271 273 275 279 286 277 279 279 277 277 277 277 278 277 274 272 273 275 273 274 274 275 273 274 275 276 275 276 273 276 276 276 273 274 277 273 263 266 266 268 273 273 275 273 272 270 272 273 274 270 266 263 258 261 261 260 264 261 259 258 266 275 274 274 275 274 274 274 274 275 277 278 278 279 279 279 279
276 281 286 287 288 288 283 276 276 275 272 273 278 279 278 278 277 279 278 278 276 277 274 276 279 277 276 276 273 270 273 274 274 276 275 273 275 277 275 273 274 277 277 274 277 274 280 264 265 266 265 269 271 268 267 270 273 270 267 264 269 271 269 267 265 262 261 258 259 254 257 267 274 275 275 275 274 274 275 275 276 277 278 279 279 279 279 279
278 280 287 290 287 288 284 280 272 271 271 272 276 276 278 279 278 277 277 278 274 277 276 275 277 279 277 274 273 273 275 274 274 275 275 273 276 275 272 273 275 276 276 275 273 274 270 268 269 263 258 263 264 265 269 269 268 267 269 270 270 268 266 260 258 257 264 260 263 262 260 264 272 276 275 275 274 276 277 277 276 277 278 279 279 279 279 279
281 282 282 284 289 286 280 275 275 272 274 273 272 274 274 276 278 279 278 278 278 276 277 277 278 278 276 275 273 274 271 274 272 274 275 274 276 277 274 271 275 277 279 280 284 279 270 268 267 265 265 266 266 266 266 265 265 269 270 271 270 269 266 265 267 256 260 260 262 258 261 271 274 274 276 276 275 276 277 277 278 278 278 278 279 279 279 279
280 281 278 280 284 282 279 279 279 276 273 270 274 275 275 275 279 277 278 278 278 278 278 278 277 276 275 275 274 272 273 273 273 271 273 271 273 275 275 273 273 276 280 283 280 273 265 267 267 264 264 267 270 270 269 274 269 268 269 269 270 270 269 268 263 258 263 259 264 267 267 272 275 277 277 277 277 277 278 279 279 279 279 279 279 279 279 279
278 275 276 278 276 281 275 277 275 277 278 277 275 275 275 274 275 276 278 277 279 278 278 278 275 278 276 276 273 273 273 274 272 272 271 270 272 273 272 275 273 280 284 283 280 268 264 266 266 267 268 272 271 269 270 273 271 270 271 270 270 270 269 269 266 265 266 263 265 267 269 267 273 275 276 276 278 278 278 279 279 279 279 279 279 278 281 278
282 276 275 278 281 279 277 279 276 277 277 278 275 276 274 274 275 274 277 279 279 278 276 278 277 277 277 278 275 273 273 273 271 273 274 272 273 274 273 275 276 279 280 273 275 272 264 266 268 268 266 269 271 271 271 268 270 271 271 270 270 270 269 269 268 270 269 265 269 269 268 269 274 276 278 278 278 278 278 278 279 278 278 278 278 278 277 278
278 274 275 279 278 273 276 278 277 278 279 276 278 276 274 274 275 275 276 277 275 277 278 275 277 276 276 277 277 274 274 274 272 272 272 271 271 272 271 272 275 274 270 272 269 266 270 263 266 268 267 270 271 269 269 270 268 268 270 271 272 270 270 271 271 270 270 271 273 273 273 272 275 276 278 279 279 278 279 278 278 277 278 278 278 277 277 278
279 278 277 276 276 271 275 275 275 278 278 281 278 276 275 275 276 276 277 276 275 277 279 278 277 275 276 275 275 277 276 277 277 276 275 273 271 273 270 274 273 274 271 271 270 271 271 265 274 265 265 266 266 267 266 268 267 267 271 271 271 271 271 272 271 271 270 270 272 272 271 271 276 278 278 279 279 277 276 277 277 278 278 278 277 278 278 279
283 281 282 283 276 276 278 276 278 276 277 278 275 276 277 275 275 276 278 279 278 276 277 278 277 276 276 276 277 276 278 276 277 279 277 275 276 276 275 274 276 270 272 269 268 267 271 267 262 260 267 265 264 264 267 264 265 266 268 269 269 267 264 268 270 272 270 270 270 269 268 271 276 277 277 277 276 277 278 278 278 278 278 278 278 278 278 279
282 282 278 278 276 281 278 276 275 278 277 278 277 277 278 278 277 277 277 278 278 279 278 277 277 277 276 276 277 278 279 277 279 278 277 277 278 277 277 276 276 274 270 270 268 268 265 265 265 261 265 261 263 263 267 266 266 265 267 267 270 270 269 269 272 272 274 273 269 266 271 278 277 278 276 278 278 278 278 279 279 278 279 278 278 278 278 278
Wind_Speed
15 15 14 14 15 15 15 15 15 15 14 14 14 14 14 14 14 14 13 13 13 14 14 13 12 12 13 9 5 2 6 4 13 18 25 13 20 27 26 27 26 24 20 4 11 9 5 7 7 4 9 8 5 5 2 6 3 7 7 5 7 2 3 2 1 2 3 3 0 2 1 5 2 0 1 1 8 8 6 9 5 8 9 5 3 3 3 2
15 15 15 15 15 16 16 16 15 15 15 15 15 15 14 15 14 15 15 14 14 14 14 12 11 11 9 7 3 3 5 5 11 21 15 17 29 28 26 26 25 23 13 11 9 4 8 5 5 11 8 6 4 4 2 3 6 8 4 5 7 3 1 2 2 2 3 2 3 2 1 3 2 2 2 3 3 1 5 6 5 7 6 5 5 4 4 5
16 16 16 16 16 16 16 16 16 15 15 15 15 14 15 14 15 15 14 14 14 14 16 12 14 13 6 6 10 6 3 3 13 23 15 25 29 27 26 25 23 19 5 1 3 6 6 2 4 11 7 5 10 4 5 4 5 4 7 8 2 2 1 1 3 2 3 10 6 5 1 5 1 2 0 3 3 3 5 5 5 3 5 5 4 5 4 5
16 16 16 16 16 16 16 16 16 15 15 15 14 14 13 14 14 14 14 15 14 13 14 13 13 12 13 13 8 3 4 4 12 7 12 26 29 26 25 24 22 15 2 5 3 4 1 2 10 10 5 12 6 3 11 8 4 2 8 4 5 5 4 1 1 4 5 2 5 4 2 4 3 2 1 8 6 2 1 1 3 9 8 7 5 4 4 5
16 16 15 16 16 16 16 16 15 15 14 13 13 13 13 13 14 14 14 14 13 12 12 13 12 8 9 8 4 2 4 7 5 9 15 28 27 25 23 21 20 9 2 2 6 6 5 7 5 8 8 4 7 7 6 8 4 5 4 2 4 2 5 0 1 3 3 3 7 2 4 2 0 4 6 2 1 1 0 2 4 4 6 6 5 3 4 6
16 16 15 16 15 15 15 15 14 14 14 13 14 14 13 13 13 13 13 12 12 10 9 11 11 8 10 16 11 5 4 5 5 10 17 26 26 24 21 16 16 6 4 14 4 10 15 11 14 7 5 8 9 10 6 1 1 10 5 4 4 0 5 1 1 4 2 2 3 1 1 1 3 2 3 5 4 1 2 3 4 4 4 4 5 5 5 5
15 15 15 15 14 15 15 15 15 15 15 15 14 14 13 13 12 12 12 11 10 10 7 9 1 10 1 10 8 18 14 2 3 11 19 24 24 20 20 11 16 13 18 11 10 9 6 13 15 3 4 9 9 8 6 12 10 13 4 3 8 7 7 4 3 5 5 8 4 0 3 6 2 6 3 5 2 3 3 4 5 6 6 4 4 3 4 3
16 15 15 15 16 16 16 16 16 15 15 14 14 14 13 13 12 11 11 10 10 10 11 12 5 1 2 2 6 9 12 5 12 9 18 22 19 18 16 12 16 11 18 9 4 5 5 11 11 2 12 10 2 4 1 16 12 10 8 1 1 5 2 4 5 7 6 6 1 8 7 3 2 3 1 2 2 3 4 5 6 5 5 4 5 4 3 3
17 17 17 17 16 16 16 16 15 15 14 14 13 13 13 13 13 11 10 9 8 8 11 15 15 6 4 4 2 14 8 5 7 10 13 15 15 12 16 11 12 8 6 9 10 3 9 1 5 1 4 5 2 6 8 4 8 4 3 2 4 4 3 3 6 6 4 2 3 8 6 2 2 1 5 1 1 2 2 6 4 4 4 3 2 1 2 1
18 18 17 17 16 16 16 15 15 15 14 14 13 12 12 12 12 10 7 7 7 7 7 9 17 13 9 4 6 16 3 4 6 9 12 12 11 15 19 12 11 11 10 9 14 13 10 5 16 9 14 11 2 7 3 12 5 3 6 5 7 2 2 4 4 2 2 2 2 4 1 1 2 3 0 1 1 2 4 3 3 4 2 1 1 0 0 0
18 18 17 16 16 15 15 15 15 15 15 14 13 11 11 12 10 8 7 5 6 5 5 4 6 8 12 12 14 9 2 7 4 7 11 11 10 13 11 11 10 6 14 13 10 1 3 7 5 5 6 1 7 10 11 3 7 6 7 7 7 5 10 6 4 6 2 2 4 7 1 2 5 1 1 2 2 3 5 2 2 2 1 1 1 0 0 1
18 17 17 16 16 15 15 16 15 15 15 14 13 11 11 10 9 7 6 5 7 7 5 6 3 6 3 19 14 3 4 5 4 5 7 10 7 3 4 6 6 6 10 11 9 6 1 3 5 4 7 1 12 6 8 1 3 2 2 7 1 6 10 12 5 6 2 1 0 0 1 4 6 2 4 1 3 3 4 2 1 1 1 1 1 1 1 1
17 17 17 16 16 15 15 16 15 15 15 14 12 10 12 9 7 7 6 6 7 5 7 7 6 3 1 18 3 3 2 3 3 8 12 13 6 1 1 5 6 7 6 11 5 5 7 6 14 16 2 5 3 2 3 7 1 1 7 3 3 7 7 12 5 11 3 1 1 2 1 4 3 4 3 2 4 3 3 1 1 1 2 2 2 2 3 3
17 17 17 16 16 15 15 14 16 15 14 13 12 11 13 6 6 8 6 4 7 1 4 8 5 7 8 5 4 3 5 0 5 17 16 11 9 4 3 7 5 6 4 8 5 5 7 8 17 12 3 7 5 0 6 3 5 3 3 5 3 3 2 4 5 11 8 3 4 0 2 3 5 6 4 4 2 4 2 0 1 2 2 3 3 3 3 5
18 17 17 17 16 15 14 14 15 16 13 12 11 11 13 8 6 7 8 9 13 4 2 3 5 3 8 1 4 7 6 1 15 10 7 12 10 6 8 10 7 7 3 7 3 5 5 7 16 10 4 2 3 3 3 4 4 3 2 5 4 6 1 3 5 10 6 4 8 1 4 1 1 6 5 2 2 2 2 2 2 3 3 3 4 4 4 5
18 17 17 17 16 15 14 14 16 16 15 11 9 8 11 14 6 4 7 4 8 7 0 6 8 8 10 6 1 6 4 14 14 7 4 4 4 4 7 6 4 5 7 6 2 1 8 12 14 2 2 5 10 5 5 4 6 6 7 1 3 3 2 2 2 7 8 3 3 5 1 3 1 7 6 1 2 0 1 2 3 3 4 4 4 4 4 5
17 17 18 17 17 15 14 14 16 14 14 10 7 5 4 15 12 3 7 9 6 5 8 3 1 1 9 4 2 7 5 4 4 5 8 1 3 4 5 5 4 7 5 2 13 8 9 10 2 5 5 8 3 1 1 8 5 5 4 4 1 1 3 2 6 8 8 9 4 11 6 3 6 9 6 2 1 0 0 3 4 5 5 5 5 5 5 5
17 18 18 17 17 15 14 14 15 14 12 7 4 3 2 7 19 17 11 7 2 6 4 4 2 3 2 6 5 8 5 6 9 8 6 3 3 7 8 6 2 2 4 5 7 11 5 6 6 5 3 12 13 11 8 1 1 2 4 4 4 2 1 1 5 6 7 5 11 6 7 9 8 7 7 5 3 0 2 4 3 4 4 5 4 5 5 6
17 17 17 17 16 15 13 13 15 13 11 4 2 1 2 5 3 10 14 9 9 9 9 10 11 9 1 8 7 7 6 5 4 6 14 12 5 2 3 1 4 6 2 6 5 6 6 4 2 10 14 13 11 6 3 1 2 2 4 4 1 4 3 3 2 2 4 7 10 11 5 7 9 9 7 6 4 3 3 3 4 4 4 4 5 5 5 6
17 17 17 16 16 15 13 12 15 12 9 4 3 1 3 2 8 6 7 10 14 5 3 1 0 0 2 6 8 8 6 5 7 15 17 7 5 6 11 6 2 9 7 5 7 8 2 15 8 3 6 8 7 3 5 3 1 4 4 4 3 1 1 1 0 3 1 2 7 3 3 6 8 7 6 5 4 7 7 6 5 5 6 6 6 7 7 8
18 17 17 16 16 14 12 12 15 11 8 6 4 4 1 2 3 2 2 5 1 3 3 0 1 1 0 2 4 8 6 4 5 13 11 7 3 7 10 7 10 12 7 2 3 3 4 16 9 4 5 6 7 5 1 3 1 3 4 3 3 3 2 0 1 6 7 4 4 5 4 9 6 6 6 5 7 6 6 6 6 7 5 5 6 8 7 8
18 18 18 17 16 14 11 9 15 7 10 6 9 7 3 1 0 1 4 4 3 1 3 1 1 2 2 3 2 1 3 1 16 19 13 12 10 8 7 12 11 11 6 4 4 7 15 9 7 5 4 4 3 2 2 3 4 3 3 1 2 5 2 3 1 3 5 5 4 3 7 6 5 4 5 5 3 1 3 2 2 4 6 6 6 5 7 7
18 18 18 17 16 13 8 6 8 14 7 9 6 4 2 0 1 1 1 7 3 1 3 3 4 3 4 1 1 3 7 15 4 11 11 8 5 10 1 9 10 8 12 8 7 2 10 7 7 4 1 1 5 6 4 4 5 6 6 5 2 2 4 0 1 5 7 3 3 1 6 3 4 3 4 3 3 2 3 3 2 1 4 6 6 5 6 7
19 18 18 17 16 13 7 4 5 10 8 6 7 2 1 1 2 0 1 2 3 2 1 0 1 1 4 4 3 5 7 2 2 14 9 4 4 1 6 3 8 7 11 12 15 16 7 3 2 1 3 3 4 5 9 6 4 2 3 2 2 1 1 2 3 4 3 2 3 2 1 1 4 4 5 5 4 1 3 3 2 3 3 2 3 4 3 4
19 18 18 18 17 13 4 6 9 2 1 3 3 0 1 2 1 0 2 1 4 2 4 1 3 2 1 1 3 1 0 1 3 3 2 3 3 3 1 1 3 4 2 1 8 12 7 1 0 2 4 6 5 10 9 3 1 2 1 1 0 2 1 3 3 2 2 1 3 1 1 1 3 1 2 4 6 7 4 5 5 6 6 6 6 5 6 5
18 18 18 18 18 11 3 5 1 1 3 3 1 1 1 3 1 0 5 4 2 4 3 5 1 3 3 4 5 0 1 4 2 3 2 4 4 2 1 4 1 3 2 3 7 5 3 1 4 2 4 5 6 3 1 1 0 2 3 1 2 0 1 2 2 2 1 3 2 1 2 3 0 1 1 2 3 4 5 4 5 5 5 5 5 5 5 6
18 16 17 17 19 8 3 0 0 1 1 1 0 1 2 2 1 0 0 4 4 1 3 2 2 2 2 2 1 0 3 3 3 3 6 5 3 0 8 4 3 3 2 2 3 4 3 5 6 4 5 6 4 6 0 1 1 1 1 0 3 0 3 3 3 2 2 1 1 4 2 1 2 2 2 2 1 3 4 5 5 5 5 5 5 5 5 6
17 16 15 13 13 14 3 4 1 2 1 0 0 1 2 2 2 1 4 3 2 2 2 4 1 3 4 6 10 8 2 6 3 4 3 7 1 5 9 3 4 0 1 2 8 3 3 5 6 8 6 5 5 1 5 1 1 1 1 1 0 3 2 3 4 5 1 2 0 7 4 2 2 3 1 1 1 2 3 4 4 5 6 5 6 6 5 5
17 16 15 10 4 10 7 4 3 2 0 0 1 1 1 1 2 4 3 2 1 2 2 0 1 2 8 5 9 3 2 5 4 3 9 3 7 2 6 1 3 7 5 4 7 1 1 1 1 2 4 6 4 4 2 3 5 1 1 4 3 2 2 1 3 4 1 3 1 4 4 1 6 2 1 1 0 3 2 3 4 4 5 5 6 7 7 6
16 15 14 10 2 6 5 4 4 0 0 1 1 2 1 1 2 1 1 2 0 1 1 2 3 5 4 2 3 9 10 5 2 7 5 4 10 9 4 0 1 4 7 7 9 1 0 2 4 4 3 2 4 4 2 3 2 1 3 1 1 4 3 2 5 3 3 2 1 1 3 3 3 3 5 4 3 3 2 3 3 4 5 5 4 4 5 5
15 13 14 9 6 1 0 3 2 0 2 1 1 0 0 5 3 4 1 1 2 1 1 5 2 5 6 7 4 5 2 3 9 5 6 6 12 4 5 1 4 3 6 6 5 5 3 1 1 1 1 3 1 3 0 1 3 1 1 1 2 1 5 2 5 3 2 2 2 1 1 1 1 4 3 5 2 2 3 2 3 4 5 5 5 6 6 5
13 9 10 9 0 1 3 1 1 2 2 2 1 2 2 3 5 3 1 4 0 3 3 3 2 1 4 1 4 8 5 6 5 8 8 5 8 12 10 4 7 2 4 5 4 3 4 5 3 5 2 9 4 1 2 2 6 5 3 7 4 3 6 2 8 3 0 1 2 1 3 2 3 6 1 2 4 4 4 5 4 3 5 6 6 7 6 6
11 5 4 5 1 3 1 0 3 2 2 2 2 4 2 4 0 2 1 3 0 2 0 2 1 4 2 1 4 3 2 4 4 4 1 3 5 1 1 6 2 1 1 2 1 6 2 3 5 5 3 4 5 7 8 6 10 12 9 3 4 3 4 1 3 3 3 4 1 2 1 2 3 4 3 4 5 5 3 5 5 5 5 6 6 6 7 7
8 5 2 3 3 2 1 2 2 2 1 1 1 2 6 2 0 2 1 1 0 1 2 2 3 0 5 4 2 1 5 1 3 3 3 1 6 6 5 4 9 6 4 1 4 2 2 3 5 5 3 4 4 4 0 1 2 2 1 1 2 4 1 2 1 1 2 6 6 4 1 3 3 2 2 7 3 3 3 4 5 6 7 6 6 6 6 5
3 6 2 1 2 2 1 1 2 2 2 2 8 5 1 1 0 2 0 1 1 1 0 1 1 2 3 3 2 1 2 1 3 2 9 5 4 1 4 8 5 2 0 1 0 1 0 2 2 1 2 2 3 1 1 2 1 1 2 3 5 1 1 0 2 1 1 3 7 2 2 2 2 1 2 1 3 4 2 3 3 5 4 3 5 5 6 7
2 2 1 1 2 2 1 1 2 2 1 4 4 6 2 1 0 1 1 1 1 0 0 1 4 2 1 1 1 3 3 0 3 2 3 3 1 1 1 1 3 4 3 3 1 2 2 1 2 6 2 4 2 1 2 0 2 3 2 3 1 2 4 4 1 1 1 2 3 1 7 3 7 1 1 2 2 5 4 4 4 5 5 5 5 6 6 7
1 2 1 2 1 2 0 1 1 2 5 6 4 1 1 0 0 1 3 0 0 1 2 0 2 2 1 1 2 4 1 1 1 2 2 0 1 2 3 2 1 2 2 2 1 1 0 5 2 2 1 2 1 0 0 2 0 1 3 1 2 3 4 2 1 3 4 2 3 3 3 7 5 2 2 1 4 7 6 7 5 6 5 5 7 7 7 8
1 1 0 1 2 2 0 0 1 4 6 8 5 3 0 2 0 0 1 0 0 1 3 2 0 0 1 0 2 3 6 2 5 3 1 1 1 0 1 1 0 3 2 1 2 1 2 2 1 0 2 4 4 0 2 1 1 5 3 3 1 2 2 3 3 4 4 3 4 7 2 6 5 5 2 2 3 6 7 5 4 6 6 7 7 9 9 8
2 1 0 1 3 1 0 1 4 2 1 9 0 3 0 0 1 0 3 2 0 0 2 1 1 0 2 0 1 0 3 3 1 2 2 1 2 1 0 0 1 1 2 0 2 0 1 1 2 0 0 3 3 3 1 4 3 3 2 3 2 3 2 2 0 2 4 3 6 6 5 4 4 4 3 3 5 5 6 4 5 5 6 7 7 8 8 8
1 1 1 1 4 1 1 1 6 10 9 5 2 1 1 2 0 1 1 0 1 1 1 2 1 2 1 0 0 0 2 2 1 1 2 1 1 1 1 3 0 4 4 2 2 0 0 0 2 1 2 1 0 3 1 1 2 4 5 3 2 2 2 4 1 1 1 3 2 1 8 6 6 5 4 5 4 5 5 6 5 5 7 8 8 9 8 8
1 2 2 1 4 0 2 13 14 8 7 0 1 4 0 1 2 0 3 3 1 2 1 2 3 1 2 1 0 0 1 2 1 1 0 0 1 1 1 1 0 3 3 1 5 2 1 1 1 4 4 1 1 1 1 0 0 1 1 2 4 1 2 1 5 3 2 1 3 2 9 7 9 2 5 5 4 4 5 5 5 6 8 9 10 9 9 8
1 1 2 1 3 1 4 9 5 0 5 4 1 1 1 2 2 0 1 1 2 1 2 4 2 4 1 1 1 0 1 1 1 1 0 1 0 1 1 3 1 0 1 0 0 1 1 2 2 5 1 0 1 1 2 1 1 0 0 0 3 3 5 3 0 2 1 1 3 2 0 10 6 3 3 5 4 4 4 3 5 7 9 10 10 10 9 8
3 0 1 2 3 2 11 7 1 6 4 1 3 2 2 1 2 1 1 1 0 1 2 2 0 1 1 0 1 1 0 1 0 0 0 1 1 0 3 3 2 1 1 1 0 1 3 2 3 4 3 3 1 1 0 5 1 1 1 1 1 1 3 6 3 2 2 2 1 2 2 10 6 2 4 4 4 4 5 4 7 7 8 10 10 10 9 8
1 1 2 1 2 3 3 0 1 2 0 1 1 0 2 0 1 1 1 1 0 0 1 1 0 1 2 1 2 1 1 1 1 2 0 1 0 3 3 4 2 0 1 0 1 1 1 1 2 3 4 3 1 2 1 1 1 1 1 1 2 4 5 3 5 1 1 6 7 7 5 6 2 1 2 2 3 4 6 6 4 7 8 9 10 9 7 7
2 1 1 7 9 6 2 2 8 6 1 3 1 4 1 2 2 0 1 1 0 1 1 0 0 1 2 1 2 1 1 1 0 1 0 0 1 0 1 4 3 2 2 2 1 0 1 1 1 1 2 4 6 7 6 4 2 2 0 1 2 6 7 1 1 2 1 2 4 2 7 10 5 4 5 5 4 6 7 6 5 5 7 9 8 8 8 7
1 1 4 5 8 8 6 1 5 8 8 3 4 0 1 1 1 2 2 1 0 0 1 2 1 2 2 0 2 1 1 2 1 1 1 1 2 1 1 4 4 2 2 3 4 1 1 0 1 3 3 4 6 4 1 1 1 1 1 3 4 1 1 3 5 4 5 3 6 10 7 12 18 14 9 9 8 10 11 10 11 10 10 10 9 10 9 9
1 3 1 1 5 8 3 3 3 3 5 4 3 3 2 1 0 1 2 0 0 0 1 1 1 1 0 1 1 2 1 1 2 2 0 1 1 2 2 1 2 2 4 1 4 3 2 1 2 2 5 7 3 6 2 2 5 5 4 4 4 7 7 8 7 6 6 5 8 6 5 3 14 11 7 8 9 9 9 10 11 10 10 11 11 9 10 9
1 1 2 1 1 1 1 3 3 6 3 3 1 1 3 2 0 1 1 1 0 0 1 0 0 1 3 1 3 1 0 0 1 1 1 1 1 3 1 0 1 4 3 0 2 1 2 1 0 1 4 7 8 9 4 3 5 6 5 5 5 8 8 9 8 6 8 5 12 2 3 4 14 13 14 13 12 9 9 11 9 8 9 10 9 9 9 10
3 2 1 1 1 0 1 1 3 6 7 3 2 2 2 3 4 2 2 0 1 0 0 0 2 3 1 0 1 1 2 1 1 0 2 1 2 0 1 1 0 4 2 1 2 1 2 1 1 1 4 7 8 7 4 5 2 2 7 8 8 8 12 13 11 6 11 13 14 14 13 17 19 18 18 16 10 9 10 8 7 8 10 9 8 8 9 10
2 2 1 5 6 4 0 1 1 3 5 1 3 1 4 6 5 1 1 1 1 0 0 0 0 2 2 2 1 1 3 2 1 0 3 3 0 1 2 3 1 2 2 1 0 1 1 1 3 1 2 5 3 3 1 1 1 6 9 8 8 8 8 10 6 5 5 11 17 18 16 18 20 13 12 12 9 5 6 8 9 9 8 7 7 8 10 10
0 0 3 8 4 1 1 2 1 2 2 1 2 1 2 3 2 4 1 0 0 2 3 1 5 4 1 1 0 0 1 2 3 1 7 3 1 3 2 1 3 2 1 1 0 2 1 2 2 2 4 6 3 4 8 3 6 9 13 7 7 6 7 5 8 7 7 13 5 1 6 12 14 4 5 5 5 6 9 9 8 7 5 5 9 11 11 11
2 0 2 5 5 1 0 0 0 1 1 1 1 3 1 6 2 4 3 0 1 0 3 5 5 6 1 0 3 2 1 4 3 1 4 2 4 5 3 2 2 3 3 2 0 1 0 1 1 3 4 4 3 5 11 11 7 2 3 4 11 6 4 1 5 3 11 3 1 5 11 8 4 0 4 7 8 11 9 9 6 6 7 9 10 11 10 10
Wind_Direction
5 2 359 357 354 353 354 354 353 353 353 355 353 355 352 349 347 342 342 342 340 333 329 324 310 294 285 279 287 305 58 54 9 26 31 355 345 341 340 338 340 339 345 23 17 48 12 16 12 324 44 50 319 43 302 51 4 52 57 116 59 165 81 212 175 173 156 121 210 2 348 110 86 165 193 243 51 78 74 62 59 56 62 77 100 103 107 80
4 1 358 356 354 354 354 353 353 353 354 353 355 353 351 351 347 344 342 342 342 336 330 333 340 340 298 267 155 110 79 34 22 27 23 343 345 343 340 338 340 347 343 35 26 343 72 8 9 49 43 40 324 38 13 12 33 70 103 59 128 192 209 148 215 184 108 158 163 145 62 130 132 130 196 87 358 40 65 60 76 76 74 82 82 78 72 64
2 360 357 355 354 353 353 354 352 352 353 353 354 351 352 349 348 343 341 342 341 341 341 342 11 2 41 127 123 116 66 343 13 18 338 345 343 340 340 337 341 348 36 54 10 59 69 46 310 70 6 83 8 37 31 356 61 17 103 81 34 206 157 231 196 196 162 149 130 109 78 77 312 135 42 114 129 59 84 134 97 76 122 117 121 117 108 94
0 358 356 354 352 353 353 353 352 351 351 351 349 351 348 348 344 344 343 343 343 347 346 345 27 32 78 97 116 97 68 38 38 323 332 341 339 339 338 337 341 341 45 63 99 77 50 17 49 64 65 59 331 8 47 335 77 326 69 126 172 182 106 19 69 121 131 137 129 122 180 82 28 18 83 162 83 35 228 258 198 158 152 145 143 117 112 105
0 357 355 355 354 353 354 352 350 350 347 347 348 347 348 349 346 344 344 344 338 346 353 349 18 48 66 63 56 68 59 58 335 339 327 339 337 337 337 341 340 341 9 122 56 33 67 49 71 49 61 43 2 45 25 357 62 83 63 35 95 77 71 82 8 10 100 55 97 65 68 100 276 33 22 341 100 148 276 6 64 95 123 124 127 91 76 73
1 359 356 355 354 352 351 349 349 346 346 346 347 348 346 344 346 342 341 335 339 341 351 7 337 49 87 75 52 65 98 58 322 322 330 337 333 336 336 342 349 341 55 50 74 36 45 9 62 26 29 52 10 60 312 356 285 90 360 35 25 249 120 342 26 347 51 72 57 65 61 74 58 92 26 60 59 35 23 80 88 105 106 93 90 104 83 77
0 358 356 353 352 351 350 348 350 348 346 346 344 342 340 341 337 342 334 336 333 346 348 354 265 251 351 49 62 69 76 161 324 306 341 335 333 333 339 355 7 30 47 44 25 67 35 62 68 23 91 76 37 64 38 57 30 87 82 26 26 36 52 355 39 32 45 63 42 265 51 60 4 61 345 57 350 24 13 60 69 65 78 80 98 77 94 89
0 358 357 354 353 352 352 351 349 347 343 339 337 336 334 333 335 335 336 336 344 351 347 8 6 115 112 44 37 48 51 344 320 325 336 336 336 338 346 20 6 27 47 47 18 57 71 44 79 142 55 79 253 76 346 68 25 71 80 14 357 47 14 42 68 58 65 50 50 61 57 1 63 122 62 32 4 18 37 59 61 63 66 66 86 82 79 79
1 359 357 356 352 350 351 349 345 340 335 333 333 330 331 329 332 333 340 340 345 352 348 10 37 70 116 85 118 57 7 317 305 317 336 339 332 332 26 12 340 51 66 35 30 41 94 315 78 354 157 65 335 60 337 105 39 32 103 80 64 77 40 2 59 44 44 107 38 61 54 48 85 5 58 193 338 357 51 63 48 64 68 59 66 41 74 102
1 358 354 354 350 349 348 347 342 336 331 329 330 327 328 331 328 330 329 345 348 3 350 10 34 13 51 87 62 62 303 294 322 333 338 344 329 17 16 3 360 37 55 13 38 31 70 96 101 101 116 79 64 38 12 67 122 137 91 92 98 67 66 5 90 355 347 88 313 100 155 333 312 66 223 244 260 63 70 59 27 70 72 25 4 13 351 234
360 356 353 351 348 347 346 346 342 336 332 330 329 330 332 334 323 320 337 341 1 8 2 37 53 39 55 66 68 75 247 9 339 339 343 349 10 30 3 349 346 44 63 42 49 42 84 104 133 127 47 137 81 36 56 142 121 95 124 102 55 41 63 12 25 9 348 356 48 108 153 257 307 58 164 215 123 96 109 58 34 33 28 5 356 1 308 267
358 355 352 350 347 345 344 344 342 338 334 331 332 333 332 335 328 330 348 350 17 24 41 40 71 106 99 64 55 67 277 301 313 339 344 1 4 313 329 359 12 43 68 69 37 23 172 158 109 65 128 243 82 112 71 125 67 113 42 79 353 17 44 12 7 328 357 2 163 290 52 11 357 18 317 261 95 83 91 78 27 21 348 332 324 317 303 256
357 354 352 350 346 345 342 343 341 337 332 330 328 330 349 355 351 342 2 18 4 48 44 59 57 74 181 57 17 191 261 289 347 333 4 9 333 205 137 34 36 49 55 79 47 350 52 83 82 76 11 91 138 53 161 72 358 73 32 93 24 11 32 359 349 357 48 332 59 7 47 309 315 317 343 24 87 75 74 61 356 338 333 319 320 312 306 301
355 355 351 349 347 343 341 338 338 332 329 330 327 336 -0 11 0 358 8 40 10 58 44 45 71 61 62 101 248 254 284 139 330 16 5 336 20 332 348 7 31 39 20 87 78 13 58 69 81 100 107 56 96 333 55 357 24 99 291 56 53 41 350 347 38 350 35 1 31 355 152 294 331 357 20 6 81 120 136 272 316 334 320 314 308 307 289 285
355 353 351 348 345 341 337 339 336 331 327 331 328 326 2 21 20 11 7 12 7 355 134 60 50 73 42 142 257 295 336 191 15 6 354 5 4 337 354 342 10 9 22 62 85 27 356 65 61 38 35 346 36 52 25 45 14 33 49 347 341 81 292 303 7 31 33 316 4 50 60 67 348 6 330 340 58 107 154 258 312 316 309 307 304 300 293 274
353 351 350 346 345 341 338 338 340 331 328 331 323 314 357 26 24 25 33 46 356 23 127 54 350 88 111 50 307 8 39 21 349 327 325 42 8 1 292 286 297 13 23 41 68 255 34 60 74 83 15 1 52 66 71 31 355 4 84 80 340 20 311 354 50 16 18 265 5 37 145 346 314 346 329 332 113 99 178 282 304 311 309 309 308 308 301 310
350 350 347 346 343 342 338 337 342 334 329 333 313 301 298 30 30 28 55 41 6 349 67 13 12 112 66 255 346 22 357 317 316 336 342 102 42 338 0 26 15 340 353 340 29 36 6 54 287 38 49 88 313 103 52 30 359 0 29 108 205 39 335 20 310 20 0 39 20 5 73 333 292 321 317 354 120 102 281 294 323 331 325 320 323 317 310 302
350 349 346 345 343 342 337 338 340 341 334 337 323 308 352 340 36 40 1 7 358 74 86 107 128 40 25 16 24 321 322 302 337 298 257 320 77 10 47 31 341 358 23 10 1 38 333 51 33 154 57 26 26 17 78 44 262 355 351 29 346 347 68 36 20 320 13 17 54 2 58 4 343 348 5 337 354 106 352 355 327 327 326 318 315 305 297 293
350 348 345 344 341 341 337 336 345 344 340 303 332 274 318 19 22 55 32 339 38 355 27 346 8 73 117 316 283 281 302 258 278 9 345 356 335 67 49 117 52 45 15 54 335 43 351 93 74 39 17 357 2 12 45 103 114 135 152 120 131 47 338 19 296 291 37 22 33 28 35 343 4 7 353 353 6 58 340 352 360 344 328 313 295 281 272 266
347 345 346 343 342 341 339 343 350 351 350 59 11 26 19 17 8 352 342 29 62 87 139 263 208 207 357 355 336 290 256 355 20 353 1 4 351 356 39 38 344 64 55 41 324 39 298 65 41 31 301 303 292 295 247 241 145 109 90 98 61 47 299 286 276 322 352 85 23 11 355 30 17 360 337 331 352 22 10 359 352 349 344 332 323 309 297 285
347 345 344 344 344 343 346 352 1 350 32 88 73 63 169 155 84 72 337 53 189 69 59 41 111 114 120 277 304 358 16 327 53 4 5 296 122 55 348 19 6 48 8 290 91 324 49 63 15 340 269 266 276 305 186 78 79 126 117 100 59 61 344 232 290 330 352 106 350 358 28 36 15 1 355 353 38 7 352 352 3 348 341 335 329 323 314 294
348 348 344 343 344 343 349 5 10 17 34 64 69 91 112 185 141 107 119 58 16 23 45 23 323 31 323 207 265 128 120 325 10 3 352 21 353 75 316 69 55 54 323 0 10 25 50 49 336 316 283 255 289 18 77 111 91 40 90 136 74 5 274 285 225 331 358 79 16 359 63 27 10 358 2 24 5 359 318 328 311 328 354 353 347 340 332 338
350 345 345 343 341 342 354 9 34 34 38 29 57 72 88 221 21 249 93 120 91 311 47 20 27 16 355 269 316 141 43 40 329 348 344 9 11 59 334 50 56 69 48 34 86 76 58 13 325 332 318 160 21 35 42 47 60 59 27 50 72 274 44 30 301 358 353 75 159 86 76 40 347 341 359 5 13 296 315 299 317 346 7 357 355 334 335 349
349 345 342 343 341 340 349 20 47 37 40 84 81 74 207 103 152 134 71 90 124 324 57 233 115 145 46 15 334 52 54 352 68 336 341 45 64 233 70 77 77 52 58 60 70 78 115 274 287 41 41 100 66 27 42 33 40 356 92 121 137 64 28 187 259 338 306 29 90 95 43 350 14 13 353 331 337 335 346 326 340 354 13 321 304 353 350 336
348 345 344 342 343 341 331 35 39 45 161 42 59 252 169 142 165 24 97 15 18 30 170 86 137 54 319 263 1 143 261 96 88 234 294 68 355 40 77 155 88 18 135 95 89 84 68 328 241 18 36 43 50 35 21 6 26 337 257 169 134 121 313 283 303 7 44 358 8 117 44 314 304 343 297 289 343 6 327 18 353 336 337 355 4 339 341 351
347 348 347 345 344 340 313 51 347 146 69 56 206 220 163 123 115 68 90 76 49 289 12 6 171 355 172 344 19 192 55 53 275 317 305 13 210 122 79 28 60 146 175 108 97 106 104 353 54 56 60 43 48 102 303 66 113 72 331 129 74 231 222 207 279 134 55 100 328 358 102 269 323 62 314 306 333 330 326 359 327 320 324 340 337 334 335 338
349 347 353 352 347 351 58 318 158 155 38 341 246 204 163 154 207 11 5 351 38 305 15 263 70 354 81 314 10 75 47 307 325 357 15 4 27 17 93 333 20 29 101 165 36 20 22 2 20 42 47 52 33 23 343 87 106 23 165 148 321 151 165 197 118 104 145 358 145 40 91 176 300 255 238 304 321 325 326 326 326 330 331 328 319 319 316 315
349 347 353 359 9 30 138 119 43 48 143 275 137 107 107 119 126 13 76 59 328 9 5 318 36 333 70 317 16 73 125 313 35 343 76 299 26 6 80 82 99 319 285 75 99 260 80 348 13 18 32 42 25 262 285 133 199 285 301 258 169 177 175 140 101 93 129 105 21 358 3 66 265 261 319 7 259 326 301 302 305 316 323 318 317 313 311 304
350 348 347 360 43 62 61 96 105 88 279 199 71 104 83 115 101 110 128 111 254 75 167 84 242 36 342 3 32 22 338 11 88 309 327 353 27 159 65 57 123 82 62 113 132 191 347 99 311 136 60 357 269 279 252 188 6 263 107 83 59 66 70 102 100 98 352 64 320 352 347 76 286 274 318 333 241 266 256 278 288 286 292 297 302 310 314 317
350 351 346 355 70 17 1 34 49 241 84 60 78 99 59 69 36 31 4 15 58 290 31 280 53 304 25 56 359 360 34 343 97 313 20 70 327 28 52 125 107 50 58 20 75 123 228 307 181 82 34 269 273 276 225 203 241 6 87 79 9 33 17 22 54 81 58 31 268 292 348 113 300 253 203 160 229 192 240 307 289 296 309 306 291 290 301 307
350 353 359 6 67 251 78 23 305 222 103 82 153 55 92 39 110 98 95 230 46 298 4 32 348 20 27 42 7 347 68 357 349 20 357 3 8 50 12 16 30 52 49 18 48 340 18 11 48 279 199 293 137 319 98 277 273 145 86 111 53 305 6 29 346 31 81 289 254 269 301 134 164 293 283 236 280 209 165 217 265 286 287 285 293 304 306 308
347 357 20 43 88 80 71 296 242 140 83 120 71 58 73 257 6 85 182 334 179 297 65 306 37 53 22 342 70 355 3 338 12 24 33 8 30 33 1 60 354 33 352 5 350 352 42 27 289 322 217 26 346 41 301 13 356 36 113 41 80 287 27 326 9 5 12 193 185 212 51 45 248 219 228 240 234 260 217 211 217 245 275 289 297 301 302 303
345 349 33 38 24 45 43 186 98 122 92 45 70 55 56 89 87 270 306 326 306 354 302 126 305 19 288 44 11 337 304 56 325 47 99 2 94 46 344 61 293 183 15 333 335 19 285 275 1 335 3 22 29 67 334 10 353 14 39 35 62 34 35 317 273 213 301 293 266 28 286 226 240 293 208 197 231 216 226 234 242 243 254 270 284 297 303 305
2 17 71 354 73 53 140 97 123 116 68 36 61 22 45 49 253 95 98 257 180 333 59 37 348 58 39 85 311 352 34 329 32 355 55 4 51 24 339 17 24 3 81 10 65 324 49 351 348 10 19 344 50 80 117 182 352 19 168 105 151 142 110 322 239 340 252 247 283 297 34 241 15 239 211 221 234 277 249 252 256 251 251 264 279 275 281 292
72 49 95 5 38 21 60 97 106 109 78 63 52 83 109 257 183 174 276 282 281 323 79 280 54 55 348 28 319 301 173 357 43 27 18 46 7 28 354 331 352 94 173 64 301 76 22 232 288 355 261 340 33 343 100 102 84 255 155 112 56 9 136 34 212 168 281 334 337 339 183 184 193 224 283 268 295 296 314 307 336 295 279 305 307 312 303 297
87 311 55 6 27 329 82 94 101 77 86 56 75 41 79 189 61 115 89 199 330 117 257 30 70 65 306 324 310 72 289 125 339 75 348 51 234 53 261 228 349 25 25 99 307 12 19 33 315 318 19 50 334 328 20 146 24 307 55 30 218 165 99 84 80 77 53 53 262 210 318 301 295 37 355 338 333 292 318 299 319 301 300 324 295 294 296 289
18 331 49 338 15 331 279 87 101 75 61 86 90 87 185 302 199 184 338 164 213 148 63 61 318 79 347 321 283 336 315 53 338 91 356 276 354 349 351 308 151 13 103 133 5 168 152 258 306 28 17 11 253 230 305 18 87 47 47 238 104 116 122 121 253 334 62 120 260 33 287 307 28 310 322 343 308 279 280 270 275 293 287 299 283 285 284 285
54 44 122 41 307 325 68 326 73 43 78 78 68 138 340 87 318 141 233 0 300 31 96 95 229 79 252 129 345 350 318 82 332 56 141 358 134 213 310 296 329 86 352 345 120 308 93 3 304 348 232 300 351 26 338 5 20 116 149 176 71 335 351 328 90 360 351 338 292 312 290 246 186 259 342 302 252 271 270 279 305 291 301 289 289 291 293 296
58 79 11 300 324 308 312 66 67 72 61 60 180 105 286 92 257 123 264 213 191 165 85 223 137 313 137 174 255 302 333 68 333 79 70 323 66 143 68 154 340 142 30 141 64 209 28 141 298 304 242 317 347 56 261 298 345 27 34 45 330 98 138 5 58 206 125 270 24 294 23 273 205 225 196 245 241 248 272 303 261 258 272 283 285 289 294 297
21 28 308 328 331 44 176 73 58 42 58 102 181 113 218 82 296 288 336 1 332 72 200 132 197 109 25 194 128 77 347 81 81 325 105 302 105 18 326 19 264 317 7 43 118 289 262 101 294 278 316 346 291 10 146 147 14 332 31 352 356 42 213 123 33 104 196 188 181 244 332 282 262 212 184 230 233 244 229 246 256 270 284 291 289 288 291 292
65 102 270 331 335 310 33 45 44 35 90 235 85 149 41 167 188 322 301 355 122 325 168 167 160 120 188 111 9 330 61 59 16 69 108 354 118 304 49 61 339 331 323 23 53 13 72 23 255 310 3 22 221 18 306 333 184 182 138 125 168 82 22 37 281 23 67 55 236 113 270 278 278 178 210 228 239 255 247 224 261 281 290 295 295 294 293 294
77 34 283 336 329 78 79 52 25 210 92 100 103 160 107 119 78 289 355 326 78 129 2 106 34 118 113 83 162 142 116 56 357 86 287 150 318 106 352 28 26 217 53 100 23 280 126 155 85 293 196 319 253 304 283 256 96 145 52 186 128 103 105 98 289 287 16 42 107 154 242 274 243 215 218 237 252 245 249 207 265 281 288 291 290 289 290 283
57 184 258 18 342 79 65 75 348 47 58 229 303 351 349 24 122 239 83 338 31 130 20 59 160 81 252 163 178 83 184 110 149 30 226 284 255 176 284 325 293 96 107 343 326 299 90 67 15 275 316 307 328 314 327 27 32 0 12 55 91 138 166 167 174 173 149 311 18 356 233 251 281 211 229 239 240 260 260 226 250 280 287 289 290 293 292 296
162 264 335 267 63 110 77 143 75 29 43 299 82 65 330 153 97 18 65 329 123 16 130 159 0 344 140 123 103 120 253 79 296 104 69 182 321 158 48 21 312 73 82 199 133 254 24 302 111 336 0 336 341 346 3 336 73 160 206 198 91 81 73 133 108 40 306 218 175 123 246 277 273 294 269 244 299 299 290 288 257 280 287 287 292 292 290 293
110 299 255 306 1 52 114 174 128 143 162 136 102 60 8 27 18 286 165 134 26 153 101 6 188 162 63 117 84 94 341 89 158 331 88 142 222 49 11 28 320 108 46 245 247 280 98 213 79 68 34 357 331 327 305 313 255 238 160 108 206 127 135 115 240 16 172 276 130 185 254 253 260 280 288 288 288 284 281 274 275 252 268 287 294 299 307 315
48 142 307 350 16 41 66 37 99 130 137 148 76 274 112 73 10 324 131 44 207 97 42 134 353 87 101 81 57 34 40 349 74 209 122 263 289 340 211 328 72 122 243 124 56 79 141 50 153 150 150 195 212 222 252 55 21 262 243 173 207 138 106 98 103 106 210 204 196 239 213 295 297 293 302 308 318 313 311 316 314 314 307 304 304 310 314 310
155 80 348 341 343 49 84 27 69 77 157 180 108 178 58 123 229 342 184 6 227 122 55 41 198 119 257 84 136 82 284 339 4 95 309 182 261 248 280 126 330 335 346 163 29 83 66 335 273 168 228 235 245 255 224 153 246 255 241 243 195 165 167 142 157 218 170 78 290 244 236 221 270 290 288 294 295 298 302 304 307 306 303 301 300 300 298 300
92 236 94 207 122 304 41 8 70 91 59 77 116 63 151 121 83 134 348 30 106 326 93 340 75 348 169 167 144 107 290 38 12 194 61 278 354 330 13 341 110 319 344 15 336 120 137 162 264 117 271 266 264 264 254 252 225 245 229 215 199 195 164 191 226 192 145 185 238 247 150 233 274 283 288 289 283 285 289 288 286 285 286 289 295 298 297 296
95 136 140 290 123 285 79 176 91 105 80 85 112 93 152 151 179 208 163 101 28 343 85 9 270 222 186 22 105 124 177 96 306 325 183 180 209 37 337 10 81 356 73 26 18 150 94 271 214 145 276 285 286 305 308 225 276 282 243 233 224 188 204 210 229 197 191 234 253 278 285 278 275 276 278 279 288 286 284 290 296 294 289 292 297 294 294 296
216 128 201 13 84 114 349 48 77 61 68 357 103 249 154 175 158 190 316 125 105 287 96 128 222 82 122 103 109 79 222 157 176 165 203 121 31 179 234 196 143 8 47 115 9 325 98 279 73 180 348 293 299 312 323 86 182 271 252 229 221 217 223 224 241 232 221 270 265 268 278 279 273 264 273 277 281 289 293 287 282 281 285 290 291 296 302 305
115 123 151 119 63 341 51 12 59 100 96 346 81 217 114 193 194 171 117 338 131 180 183 201 159 116 71 86 73 117 222 166 122 12 183 147 334 215 138 303 122 133 56 58 31 315 38 257 57 69 5 305 312 351 294 289 246 245 283 262 212 179 216 213 213 209 168 229 252 324 273 261 269 276 260 281 285 287 288 290 293 288 289 301 307 307 303 300
78 78 84 104 92 300 113 59 351 81 56 224 138 186 165 219 189 144 81 150 82 357 191 145 179 106 65 88 247 224 205 156 140 88 140 87 101 80 60 92 90 158 171 120 272 89 129 117 30 23 353 261 264 291 305 321 321 358 309 237 182 199 194 239 256 230 216 164 186 223 243 240 276 107 338 298 301 297 296 293 300 306 308 310 301 293 290 288